Location: Maiden
(35.5760°N, 81.2120°W)
Time: 03:24:40
(UTC-05:00)

Cosmos 1624 Rocket - Pass Details

Date: 14 June 2018
Orbit: 757 x 784 km, 74.0° (Epoch: 15 November)

Event Time Altitude Azimuth Distance (km) Brightness Sun altitude
Rises 22:12:04 0° 342° (NNW) 3,280 8.4 -15.5°
Reaches altitude 10° 22:14:28 10° 343° (NNW) 2,348 7.5 -15.8°
Maximum altitude 22:19:49 88° 74° (ENE) 789 4.0 -16.6°
Enters shadow 22:22:58 25° 162° (SSE) 1,519 5.0 -17.0°
